Regional Weather Roundup
Issued by NWS

Home | Current Version | Previous Version | Text Only | Print | Product List | Glossary On
Versions: 1 2 3 4 5 6 7 8 9 10 11 12 13 14 15 16 17 18 19 20 21 22 23 24 25 26 27 28 29 30 31 32 33 34 35 36 37 38 39 40 41 42 43 44 45 46 47 48 49 50
525
ASUS43 KLSX 211957
RWRMO

WEATHER SUMMARY FOR MISSOURI
NATIONAL WEATHER SERVICE SPRINGFIELD MO
200 PM CST SAT JAN 21 2017

NOTE: "FAIR" INDICATES FEW OR NO CLOUDS BELOW 12,000 FEET WITH NO
       SIGNIFICANT WEATHER AND/OR OBSTRUCTIONS TO VISIBILITY.
       CURRENT SKY AND/OR WEATHER CONDITIONS ARE NOT AVAILABLE FOR
       CHILLICOTHE AND FARMINGTON.

MOZ001>031-035>038-043-044-053-054-212100-
...NORTHERN AND WESTERN MISSOURI...

CITY           SKY/WX    TMP DP  RH WIND       PRES   REMARKS
KANSAS CTY INT MOSUNNY   52  41  66 S9        29.48F
LEE`S SUMMIT   SUNNY     55  41  59 S9        29.48F
ST JOSEPH      SUNNY     50  44  80 S7        29.48F
CHILLICOTHE      N/A     47  43  86 S5        29.50F

$$
MOZ066>068-077>081-088>096-101>105-212100-
...SOUTHWEST MISSOURI...

CITY           SKY/WX    TMP DP  RH WIND       PRES   REMARKS
SPRINGFIELD    CLOUDY    62  38  40 S7        29.49F
JOPLIN         CLOUDY    61  36  39 S7        29.48F
BRANSON        CLOUDY    66  43  42 S8        29.51F

$$
MOZ032>034-039>042-045>050-055>058-069>072-212100-
...CENTRAL MISSOURI...

CITY           SKY/WX    TMP DP  RH WIND       PRES   REMARKS
COLUMBIA       NOT AVBL
JEFFERSON CITY MOSUNNY   63  36  36 W8        29.49F
ROLLA          MOSUNNY   64  35  34 SW12      29.49F
SEDALIA        SUNNY     59  41  51 SW9       29.50F
WARRENSBURG    SUNNY     55  39  54 S5        29.49F

$$
MOZ051-052-059>065-212100-
...EAST CENTRAL MISSOURI...

CITY           SKY/WX    TMP DP  RH WIND       PRES   REMARKS
ST LOUIS INTL  MOSUNNY   71  38  29 SW12      29.50F

$$
MOZ072>076-082>087-097>100-106>115-212100-
...SOUTH CENTRAL AND SOUTHEAST MISSOURI...

CITY           SKY/WX    TMP DP  RH WIND       PRES   REMARKS
CAPE GIRARDEAU SUNNY     67  53  61 SW18G28   29.56F
POPLAR BLUFF   MOSUNNY   67  56  67 S10       29.55F
WEST PLAINS    CLOUDY    66  43  43 S10       29.54F

$$



USA.gov is the U.S. government's official web portal to all federal, state and local government web resources and services.